Location: Unspecified
(52.0000°N, 4.4000°E)
Time: 11:09:51
(UTC+00:00)

Daily predictions for brighter satellites

Satellite Brightness Start Highest point End
(mag) Time Altitude Azimuth Time Altitude Azimuth Time Altitude Azimuth
Timation 2 Rocket 4.2 19:43:52 10° SSW 19:50:27 62° ESE 19:57:15 10° NE
SPOT 1/Viking Rocket 3.7 19:45:17 10° SSE 19:50:27 67° ENE 19:55:39 10° N
H-2A R/B 2.8 19:46:35 10° NNE 19:50:37 34° E 19:54:32 10° SSE
USA 281 4.1 19:44:58 10° S 19:51:21 49° WSW 19:57:46 10° NW
CZ-4C R/B 3.1 19:48:35 10° SSE 19:52:18 22° ESE 19:56:34 10° ENE
Cosmos 2297 Rocket 4.1 19:47:28 10° WSW 19:52:39 36° NW 19:57:53 10° NNE
Cosmos 1818 3.8 19:48:18 10° SW 19:53:47 80° NW 19:59:17 10° NE
Cosmos 1184 Rocket 3.1 19:51:11 10° NNW 19:54:08 60° W 19:57:02 10° S
ERBS 4.0 19:54:09 10° SSE 19:55:04 11° SE 19:55:59 10° ESE
SL-16 R/B 3.9 19:51:13 10° NW 19:56:10 31° WSW 20:01:04 10° SSW
NOSS 8 (H) 4.1 19:56:07 10° SSW 19:59:22 57° SE 20:02:14 10° NE
Cosmos 292 Rocket 4.5 19:55:25 10° NNW 20:00:03 42° ENE 20:04:40 10° SE
Cosmos 921 Rocket 3.4 19:59:53 10° S 20:03:49 38° ESE 20:07:44 10° NE
Cosmos 2082 4.0 19:58:19 10° SW 20:03:56 73° WNW 20:09:35 10° NNE
MOS 1 4.4 19:58:26 10° SSE 20:04:08 87° WSW 20:09:51 10° NNW
Cosmos 836 Rocket 4.5 19:59:22 10° SSW 20:04:31 73° ESE 20:09:44 10° NNE
Meteor 2-3 Rocket 4.1 19:59:54 10° SSW 20:05:31 70° WNW 20:11:16 10° N
Cosmos 1328 Rocket 4.5 20:01:53 10° N 20:05:47 32° ENE 20:09:38 10° SE
Cosmos 2173 Rocket 4.3 19:59:53 10° N 20:06:02 53° ENE 20:12:04 10° SSE
ATLAS CENTAUR R/B 4.2 20:02:06 10° WNW 20:06:10 25° NNW 20:10:14 10° NE
Cosmos 2151 3.2 20:03:33 10° SSW 20:07:47 76° WNW 20:12:02 10° N
Cosmos 1076 Rocket 4.1 20:04:02 10° SSW 20:08:15 61° WNW 20:12:29 10° N
USA 245 3.8 20:05:54 11° SE 20:08:22 31° ENE 20:11:27 10° N
ASTEX 1 3.5 20:04:32 10° NNE 20:09:22 55° E 20:14:09 10° S
GP-B 4.3 20:08:33 10° N 20:12:50 47° W 20:17:04 10° SSW
Cosmos 1346 Rocket 4.3 20:13:26 10° NNE 20:16:39 23° ENE 20:19:29 12° ESE
Cosmos 2263 Rocket 2.2 20:11:28 10° SSW 20:17:02 85° ESE 20:22:39 10° NNE
USA 305 3.9 20:15:59 10° SSW 20:19:18 24° SE 20:22:38 10° E
CARTOSAT-1 3.6 20:16:39 10° SSE 20:20:56 73° ENE 20:25:15 10° N
USA 307 4.0 20:18:00 10° S 20:21:07 21° SE 20:24:13 10° E
PSLV R/B 3.9 20:17:37 10° NNE 20:21:49 67° ESE 20:25:55 10° S
Cosmos 1844 Rocket 3.7 20:18:08 10° SSE 20:22:34 25° ESE 20:27:01 10° NE
ATLAS 3B R/B 2.7 20:18:50 10° SW 20:25:32 87° SE 20:32:44 10° NE
Cosmos 1603 4.1 20:24:31 10° NW 20:30:11 63° WSW 20:35:45 10° SSE
Cosmos 2016 Rocket 4.3 20:26:12 10° N 20:32:20 54° ENE 20:37:50 13° SSE
ATLAS 5 CENTAUR R/B 2.4 20:27:33 10° NW 20:32:44 69° SW 20:38:17 14° SSE
Ariane Rocket 3.2 20:27:43 10° S 20:32:46 76° WSW 20:37:51 10° NNW
Meteor 1-27 Rocket 3.9 20:30:39 10° N 20:36:11 60° ENE 20:40:58 14° SSE
Helios 1A Rocket 3.6 20:33:48 16° SE 20:36:42 39° ENE 20:40:31 10° N
Cosmos 1459 Rocket 4.0 20:32:30 10° N 20:38:45 82° E 20:45:05 10° SSE
Cosmos 773 Rocket 3.9 20:35:43 10° SSW 20:40:48 68° ESE 20:45:56 10° NNE
Cosmos 1802 Rocket 4.1 20:37:42 10° N 20:44:12 75° E 20:50:04 13° SSE
Cosmos 1725 Rocket 4.2 20:39:39 10° N 20:45:53 61° ENE 20:51:00 16° SSE
Cosmos 2227 4.2 20:40:36 10° SSW 20:46:23 88° ESE 20:52:10 10° NNE
Okean 3 Rocket 3.9 20:43:04 13° SSE 20:46:48 48° E 20:51:05 10° NNE
Cosmos 1727 Rocket 4.3 20:45:06 10° SSW 20:51:16 72° WNW 20:57:29 10° N
SPOT 5 2.9 20:47:24 16° SSE 20:51:20 78° ENE 20:56:28 10° NNW
CZ-4B R/B 1.2 20:48:23 10° NNE 20:51:32 85° WNW 20:54:40 10° SSW
Resurs 01 Rocket 3.2 20:47:35 10° SSW 20:51:35 33° W 20:55:37 10° NNW
Cosmos 1356 Rocket 3.6 20:47:30 10° SSW 20:51:43 79° WNW 20:56:01 10° N
USA 308 3.5 20:49:46 10° SSW 20:53:28 32° SE 20:57:10 10° E
Cosmos 1400 Rocket 2.9 20:51:56 14° S 20:55:18 57° E 20:59:18 10° NNE
Cosmos 2123 Rocket 4.1 20:49:42 11° S 20:55:44 58° E 21:01:53 10° NNE
Cosmos 1864 Rocket 4.5 20:51:04 10° N 20:57:14 75° ENE 21:02:12 16° SSE
Spot 2 Rocket 3.5 20:56:23 16° SSE 21:00:27 89° ENE 21:05:34 10° NNW
Cosmos 2100 Rocket 4.3 20:56:04 10° NNW 21:02:14 66° W 21:08:18 10° S
Cosmos 1441 Rocket 3.9 20:59:03 10° N 21:02:38 39° ENE 21:04:16 25° ESE
CENTAUR R/B 4.3 20:56:31 10° NW 21:03:10 37° N 21:10:54 10° ENE
Cosmos 1515 Rocket 3.6 20:59:49 10° N 21:04:09 62° ENE 21:06:42 24° SSE
NOSS 2-3 (D) 3.4 21:01:34 10° SSW 21:05:30 66° SE 21:10:09 10° NE
USA 306 3.1 21:02:17 10° SW 21:06:11 43° SSE 21:10:06 10° ENE
Cosmos 1408 Rocket 4.0 21:06:24 23° SSE 21:08:42 44° E 21:12:56 10° NNE
NOSS 2-3 (C) 3.4 21:04:49 10° SW 21:08:46 73° SE 21:13:31 10° NE
IRAS Rocket 4.1 21:03:44 10° NNE 21:09:15 75° ESE 21:14:44 10° SSW
Cosmos 1833 Rocket 3.8 21:05:39 10° NNW 21:10:48 34° NE 21:14:51 15° ESE
ARIANE 5 R/B 2.8 21:10:32 25° SE 21:12:52 58° ENE 21:17:10 10° N
Meteor 1-20 Rocket 4.3 21:10:06 18° SSE 21:14:08 57° E 21:19:41 10° NNE
Cosmos 1151 Rocket 4.3 21:10:12 10° NNW 21:14:12 38° W 21:18:09 10° SSW
SPOT 3 Rocket 4.2 21:10:09 12° S 21:14:52 52° W 21:19:59 10° NNW
NOSS 3-1 (C) 3.2 21:11:58 10° SSW 21:17:11 67° SE 21:23:27 10° NE
Terra 1.8 21:15:42 23° SSE 21:18:44 88° WSW 21:23:32 10° NNW
ERS-1 Rocket 3.1 21:15:22 19° S 21:18:58 74° WSW 21:24:00 10° NNW
Cosmos 44 3.7 21:16:11 10° NW 21:20:24 46° NE 21:22:58 22° ESE
Cosmos 1515 4.3 21:16:51 10° NNW 21:20:33 53° W 21:22:54 20° SSW
Cosmos 2082 Rocket 4.0 21:17:33 10° NNW 21:22:00 23° NE 21:26:25 10° E
Cosmos 1766 Rocket 4.0 21:20:07 10° SSW 21:24:27 62° WNW 21:28:52 10° N
Cosmos 1666 3.3 21:24:20 33° ESE 21:25:06 37° E 21:28:34 10° NNE
Cosmos 389 Rocket 4.4 21:26:21 16° E 21:26:21 16° E 21:28:01 10° NE
H-2A R/B 3.8 21:22:35 10° N 21:26:31 33° WNW 21:30:22 10° SW
Cosmos 1743 Rocket 4.1 21:26:50 30° SE 21:28:10 39° E 21:32:13 10° NNE
Cosmos 1844 3.7 21:23:22 10° SSW 21:29:02 62° ESE 21:34:43 10° NE
USA 229 DEB 4.0 21:25:01 17° S 21:29:30 40° ESE 21:35:45 10° NE
ERBS 1.7 21:26:37 10° SW 21:29:33 70° SSE 21:32:29 10° ENE
USA 229 4.0 21:25:15 17° S 21:29:36 40° ESE 21:35:51 10° NE
Cosmos 1356 3.3 21:28:33 10° NNW 21:31:50 77° W 21:32:47 43° S
Cosmos 1602 3.6 21:30:29 28° S 21:32:28 85° ESE 21:36:24 10° NNE
Cosmos 2228 Rocket 3.8 21:30:11 10° N 21:34:36 43° ENE 21:36:19 30° ESE
USA 234 3.5 21:31:04 10° ENE 21:37:19 45° SE 21:43:33 10° SSW
Cosmos 1378 3.2 21:35:25 10° N 21:39:03 58° ENE 21:39:55 44° SE
Cosmos 2056 Rocket 4.1 21:34:02 10° NNW 21:39:05 47° ENE 21:41:35 27° ESE
CZ-4C R/B 2.2 21:34:57 10° SW 21:39:55 80° NW 21:46:10 10° NE
Cosmos 2278 Rocket 3.9 21:41:46 16° E 21:41:55 16° E 21:45:08 10° ENE
Cosmos 1500 3.0 21:40:47 34° SSW 21:42:19 86° WNW 21:46:03 10° N
Cosmos 2233 Rocket 4.0 21:37:01 10° NNW 21:43:20 83° W 21:47:17 25° S
Genesis I 3.6 21:40:17 10° SW 21:44:19 67° NW 21:48:23 10° NE
CZ-2C R/B 3.6 21:40:34 10° NNE 21:45:04 87° WNW 21:47:50 24° SSW
ATLAS CENTAUR R/B 4.4 21:43:03 10° NW 21:46:27 18° N 21:49:47 10° NE
Meteor 1-18 Rocket 4.3 21:40:59 10° N 21:46:56 75° ENE 21:49:52 31° SSE
Cosmos 405 2.9 21:49:40 53° ESE 21:49:48 54° E 21:53:06 10° NNE
Cosmos 1315 Rocket 2.7 21:50:28 46° SSE 21:51:26 65° E 21:55:25 10° NNE
Cosmos 1346 Rocket 3.8 21:49:19 10° NNW 21:53:05 41° W 21:54:54 25° SSW
NOSS 2-2 (D) 4.2 21:54:24 27° E 21:54:24 27° E 21:56:26 10° ENE
NOSS 2-3 (E) 4.2 21:50:06 10° WSW 21:54:06 57° NW 21:59:00 10° NE
Cosmos 1500 Rocket 3.4 21:54:17 37° S 21:55:57 80° E 22:00:20 10° NNE
NOSS 3-1 (A) 3.1 21:51:03 10° SSW 21:56:17 69° SE 22:02:36 10° NE
USA 305 2.6 21:54:10 10° WSW 21:58:18 78° SSE 22:02:26 10° ENE
USA 307 2.6 21:55:58 10° WSW 22:00:05 72° SSE 22:04:12 10° ENE
Cosmos 2263 Rocket 4.4 21:57:03 10° W 22:01:40 26° NW 22:06:18 10° NNE
OPS 8737 4.3 21:59:30 10° NW 22:02:17 61° WSW 22:02:17 61° WSW
Cosmos 1633 Rocket 4.4 22:02:13 24° E 22:02:33 24° E 22:06:06 10° NNE
Cosmos 1844 Rocket 3.0 22:00:27 10° SW 22:06:00 68° NW 22:11:35 10° NNE
Meteor 1-14 Rocket 4.5 22:07:18 37° SE 22:09:07 51° E 22:14:31 10° NNE
Okean 1 4.1 22:06:25 10° NNW 22:10:15 46° W 22:11:32 33° SW
Meteor 2-4 Rocket 3.8 22:05:59 10° NNW 22:11:59 86° W 22:14:36 36° S
ATLAS 5 CENTAUR R/B 4.3 22:13:14 10° WNW 22:16:49 17° WSW 22:19:43 13° SW
Cosmos 1680 Rocket 3.5 22:15:17 41° S 22:16:54 61° ESE 22:22:04 10° NNE
ATLAS 3B R/B 4.1 22:10:34 10° W 22:17:01 41° NNW 22:23:53 10° NE
BREEZE-M DEB (TANK) 3.8 22:10:39 10° WNW 22:18:00 38° SW 22:18:23 37° SSW
Cosmos 1464 Rocket 4.0 22:16:10 10° N 22:22:33 75° ENE 22:25:10 37° SSE
Cosmos 923 Rocket 3.9 22:21:49 32° SSW 22:24:23 88° ESE 22:29:43 10° NNE
Cosmos 1066 Rocket 4.4 22:21:26 10° N 22:27:18 65° ENE 22:29:28 39° SE
COSMOS 2406 3.5 22:21:56 10° NNW 22:27:34 60° NE 22:30:00 33° ESE
ADEOS Rocket 3.4 22:26:46 33° SSE 22:30:22 74° ENE 22:37:09 10° NNW
Spot 4 3.9 22:30:08 48° SE 22:31:28 76° ENE 22:36:21 10° NNW
USA 308 2.7 22:28:31 10° WSW 22:32:41 88° NNW 22:36:50 10° ENE
Cosmos 2034 Rocket 4.1 22:27:32 10° N 22:33:43 65° ENE 22:36:06 38° SE
ALOS 2 3.0 22:34:55 45° ESE 22:35:47 53° ENE 22:40:06 10° N
Cosmos 1452 Rocket 4.1 22:31:20 10° NNW 22:36:28 48° ENE 22:38:28 32° ESE
NOSS 3-2 (A) 4.5 22:31:50 10° NW 22:38:44 56° NNE 22:46:25 12° ESE
Sich 1 3.2 22:40:34 47° SW 22:41:39 68° WNW 22:46:01 10° N
Cosmos 2112 Rocket 3.9 22:40:20 44° SSW 22:42:01 82° ESE 22:47:14 10° NNE
Cosmos 1420 Rocket 4.0 22:37:17 10° NNW 22:42:34 73° WSW 22:43:58 49° S
Cosmos 1862 Rocket 3.5 22:38:35 10° N 22:43:02 75° E 22:43:43 60° SE
Cosmos 1371 Rocket 4.3 22:39:55 10° NNW 22:45:09 56° WSW 22:46:33 43° SSW
USA 306 2.9 22:41:22 10° W 22:45:30 76° NNW 22:49:37 10° ENE
Meteor 1-5 Rocket 4.3 22:45:54 35° SSW 22:48:25 75° WNW 22:54:19 10° N
Cosmos 1544 4.0 22:48:18 38° W 22:48:53 41° WNW 22:52:20 10° N
Cosmos 1624 Rocket 4.3 22:44:22 10° NNW 22:49:32 55° WSW 22:50:52 43° SSW
Cosmos 1536 3.4 22:54:18 43° E 22:54:18 43° E 22:57:53 10° NNE
Cosmos 1805 Rocket 4.4 22:53:14 31° WSW 22:54:44 43° WNW 22:58:55 10° N
Cosmos 1833 Rocket 2.9 22:49:29 10° NW 22:55:04 59° WSW 22:56:31 45° SSW
CENTAUR R/B 3.5 22:47:39 10° NW 22:55:22 63° NE 23:03:34 12° ESE
NOSS 2-2 (E) 3.9 22:54:19 30° W 22:55:36 47° NW 22:59:17 10° NE
Terra 4.2 22:54:48 10° WSW 22:57:13 14° W 22:59:39 10° NW
Cosmos 389 Rocket 3.4 22:59:50 38° WNW 22:59:57 38° WNW 23:03:07 10° N
NOSS 2-2 (C) 3.6 22:59:28 47° WNW 23:00:00 54° NW 23:03:38 10° NE
Cosmos 44 4.0 22:57:33 10° WNW 23:01:21 33° WSW 23:01:21 33° WSW
Cosmos 1816 Rocket 4.5 23:00:19 44° SSE 23:02:21 72° E 23:08:37 10° NNE
ERBS 3.6 23:02:00 10° W 23:04:44 34° NNW 23:07:28 10° ENE
Cosmos 1933 Rocket 4.4 23:04:47 35° E 23:04:50 35° E 23:08:48 10° NNE
ERS-2 4.3 23:03:39 10° NE 23:05:20 16° ENE 23:05:20 16° ENE
Cosmos 1666 Rocket 3.6 23:05:57 61° SW 23:06:36 74° WNW 23:11:00 10° N
Meteor 1-11 Rocket 3.7 23:05:34 49° SSE 23:06:51 64° E 23:12:20 10° NNE
Cosmos 2082 Rocket 2.1 23:01:18 10° NNW 23:06:58 82° ENE 23:08:41 47° SE
Meteor 1-13 Rocket 4.3 23:05:12 10° NNW 23:11:05 79° W 23:12:44 49° S
Tsikada Rocket 4.1 23:09:52 44° SSE 23:11:43 64° E 23:17:55 10° NNE
BREEZE-M DEB (TANK) 4.3 23:14:12 10° W 23:18:43 41° SE 23:26:20 10° ESE
Cosmos 1626 4.3 23:16:07 10° NNE 23:18:37 17° ENE 23:19:13 17° ENE
USA 229 DEB 4.0 23:13:46 10° WSW 23:20:09 64° NW 23:27:10 10° NE
USA 229 4.0 23:13:52 10° WSW 23:20:15 64° NW 23:27:15 10° NE
USA 234 3.3 23:14:08 10° ENE 23:20:42 82° NNW 23:27:15 10° WSW
Cosmos 1743 2.7 23:23:24 80° NNE 23:23:24 80° NNE 23:27:06 10° NNE
Cosmos 2279 Rocket 4.5 23:17:51 10° N 23:23:53 51° ENE 23:26:16 34° SE
Cosmos 2278 Rocket 2.1 23:23:36 51° SSW 23:25:06 80° ESE 23:30:47 10° NNE
ATLAS CENTAUR R/B 3.7 23:22:30 10° NW 23:26:40 28° NNE 23:30:40 10° E
CZ-4C R/B 4.0 23:24:20 10° W 23:29:21 34° NNW 23:35:27 10° NE
Cosmos 1470 Rocket 3.5 23:32:41 69° SW 23:33:09 79° WNW 23:37:40 10° N
USA 305 3.1 23:33:45 10° W 23:37:52 65° N 23:41:58 10° E
GEOS 3 Rocket 3.7 23:35:40 34° ESE 23:37:54 72° NE 23:43:03 10° NW
Cosmos 1110 Rocket 3.9 23:32:55 10° NNW 23:38:14 89° WSW 23:39:19 58° SSE
Cosmos 1048 Rocket 4.0 23:37:52 57° SSE 23:38:33 63° ESE 23:43:42 10° NNE
Okean 1-7 2.9 23:34:32 10° NNW 23:38:58 80° W 23:39:13 76° SW
Okean 3 3.3 23:35:09 10° N 23:39:22 87° E 23:39:28 84° SE
USA 307 3.1 23:35:33 10° W 23:39:39 66° N 23:43:46 10° E
Cosmos 1633 Rocket 3.8 23:39:16 39° WSW 23:40:06 43° WNW 23:44:20 10° N
Cosmos 1842 3.2 23:38:50 10° N 23:42:35 80° N 23:42:35 80° N
Cosmos 1707 3.3 23:40:17 10° N 23:44:04 49° ENE 23:44:07 49° ENE
H-2A R/B 3.5 23:40:26 10° N 23:44:32 64° WNW 23:44:49 61° W
Cosmos 405 Rocket 2.8 23:41:01 10° N 23:44:21 70° N 23:44:21 70° N
Meteor 1-4 Rocket 3.7 23:49:04 35° ENE 23:49:04 35° ENE 23:51:48 10° NNE
Cosmos 1975 3.9 23:49:36 34° E 23:49:36 34° E 23:53:07 10° NNE
CZ-2D R/B 4.4 23:50:11 10° NE 23:52:52 14° E 23:55:09 11° ESE
